Notices

What's New in latest Release from April 7th, 2021:

- Updated Glossary, including Speed of Maximum Gust, and Total Hourly Precipitation

- Updated national and regional climate services offices contacts and prices information

- Addition of station inventory lists for 1981-2010, 1971-2000, and 1961-1990 Normals.

If you haven't already, please take our survey and provide feedback about our website: https://eccc.sondage-survey.ca/f/LanguageSelection.aspx?s=442ca660-fcf1-47c0-95a9-59707d6fd709

Hourly Data Report for November 29, 2020

SHEARWATER RCS
NOVA SCOTIA
Current Station Operator: ECCC - MSC

44°37'47.000" N
63°30'48.000" W
24.00 m
8205092
71264
AAW

Download Data

Hourly Data (November 2020)
Hourly Data Report for November 29, 2020
TIME
LST
Temp Definition
°C
Dew Point Definition
°C
Rel Hum Definition
%
Precip. Amount Definition
mm

Wind Dir Definition
10's deg

Wind Spd Definition
km/h
Visibility Definition
km
Stn Press Definition
kPa
Hmdx Definition


Wind Chill Definition


Weather Definition


00:00 3.6 2.2 90 0.0 32 8   100.71     LegendNANA
01:00 3.1 2.1 93 0.0 31 9   100.75     LegendNANA
02:00 2.1 1.2 94 0.0 30 3   100.76     LegendNANA
03:00 2.1 1.5 96 0.0 31 7   100.75     LegendNANA
04:00 3.0 1.9 93 0.0 28 6   100.80     LegendNANA
05:00 2.6 1.4 92 0.0 30 3   100.84     LegendNANA
06:00 3.1 1.7 91 0.0 30 9   100.86     LegendNANA
07:00 3.2 1.8 90 0.0 27 6   100.92     LegendNANA
08:00 3.3 2.1 92 0.0 28 7   101.00     LegendNANA
09:00 4.6 2.3 85 0.2 28 10   101.05     LegendNANA
10:00 5.6 2.1 78 0.0 28 13   101.10     LegendNANA
11:00 6.0 2.4 78 0.0 28 13   101.12     LegendNANA
12:00 5.8 0.0 66 0.0 29 19   101.05     LegendNANA
13:00 7.9 1.4 64 0.0 28 15   101.06     LegendNANA
14:00 8.3 -0.4 54 0.0 28 15   101.08     LegendNANA
15:00 7.1 -1.4 55 0.0 28 16   101.15     LegendNANA
16:00 6.8 -0.8 58 0.0 27 10   101.27     LegendNANA
17:00 6.0 -0.4 64 0.0 27 11   101.38     LegendNANA
18:00 6.1 0.1 65 0.0 27 9   101.48     LegendNANA
19:00 5.9 0.2 67 0.0 27 10   101.59     LegendNANA
20:00 5.6 0.2 68 0.0 30 9   101.68     LegendNANA
21:00 4.5 0.9 77 0.0 25 5   101.78     LegendNANA
22:00 3.7 0.9 82 0.0 21 4   101.85     LegendNANA
23:00 3.5 0.8 83 0.0 26 6   101.92     LegendNANA

Notes on Data Quality.

Legend

  • E = Estimated
  • M = Missing
  • NA = Not Available*
  • [empty] = Indicates an unobserved value
Date modified: